Weather History for Faro, Portugal

Change the Weather History Date:

Saturday, December 8, 2012

  Actual Average Record
Temperature  
Mean Temperature 57 °F -  
Max Temperature 63 °F 60 °F 66 °F (1997)
Min Temperature 51 °F 46 °F 39 °F (1996)
Degree Days  
Heating Degree Days 8    
Growing Degree Days 7 (Base 50)    
Moisture  
Dew Point 53 °F    
Average Humidity 87    
Maximum Humidity 100    
Minimum Humidity 65    
Precipitation  
Precipitation 0.00 in 0.12 in - ()
Sea Level Pressure  
Sea Level Pressure 30.16 in    
Wind  
Wind Speed 4 mph ()    
Max Wind Speed 8 mph    
Max Gust Speed -    
Visibility 7.0 miles    
Events      
Averages and records for this station are not official NWS values.
T = Trace of Precipitation, MM = Missing Value Source: Averaged Metar Reports

Daily Weather History Graph

Daily Weather History Graph

Search for Another Location

Airport:

Trip Planner

Search our weather history database for the weather conditions in past years. The results will help you decide how hot, cold, wet, or windy it might be!

Date:

Astronomy

Dec. 08, 2012 Rise Set
Actual Time 7:32 AM WET 5:14 PM WET
Civil Twilight 7:04 AM WET 5:43 PM WET
Nautical Twilight 6:31 AM WET 6:16 PM WET
Astronomical Twilight 6:00 AM WET 6:47 PM WET
Moon 1:49 AM WET (12/8) 1:31 PM WET (12/8)
Length of Visible Light 10h 39m
Length of Day
9h 41m
Waning Crescent, 30% of the Moon is Illuminated
Dec 8
Waning Crescent
Dec 13
New
Dec 20
First Quarter
Dec 28
Full
Jan 5
Last Quarter

Hourly Weather History & Observations

Time (WET) Temp. Dew Point Humidity Pressure Visibility Wind Dir Wind Speed Gust Speed Precip Events Conditions
12:00 AM 56 °F 53 °F 86% 30.13 in 9 mi NW 4.5 mph - -   Scattered Clouds
12:00 AM 55.4 °F 55.4 °F 100% 30.09 in 6.2 mi NNW 3.5 mph - N/A   Partly Cloudy
12:30 AM 55.4 °F 55.4 °F 100% 30.09 in 6.2 mi NNW 4.6 mph - N/A   Partly Cloudy
1:00 AM 55.4 °F 55.4 °F 100% 30.09 in 6.2 mi NNW 5.8 mph - N/A   Scattered Clouds
1:30 AM 55.4 °F 55.4 °F 100% 30.09 in - North 5.8 mph - N/A   Clear
2:00 AM 55.4 °F 53.6 °F 94% 30.09 in 6.2 mi NNE 5.8 mph - N/A   Scattered Clouds
2:30 AM 53.6 °F 51.8 °F 94% 30.09 in 6.2 mi NNE 3.5 mph - N/A   Partly Cloudy
3:00 AM 54 °F 51 °F 84% 30.14 in 9 mi NNE 2.2 mph - -   Scattered Clouds
3:00 AM 53.6 °F 51.8 °F 94% 30.09 in 6.2 mi ENE 3.5 mph - N/A   Partly Cloudy
3:30 AM 53.6 °F 53.6 °F 100% 30.09 in - East 2.3 mph - N/A   Clear
4:00 AM 53.6 °F 53.6 °F 100% 30.09 in - NE 3.5 mph - N/A   Clear
4:30 AM 53.6 °F 53.6 °F 100% 30.09 in - NE 2.3 mph - N/A   Clear
5:00 AM 51.8 °F 50.0 °F 94% 30.12 in - Calm Calm - N/A   Clear
5:30 AM 51.8 °F 50.0 °F 94% 30.12 in - Variable 2.3 mph - N/A   Clear
6:00 AM 52 °F 49 °F 86% 30.16 in 9 mi NE 2.2 mph - -  
6:00 AM 51.8 °F 50.0 °F 94% 30.12 in - NNW 2.3 mph - N/A   Clear
6:30 AM 53.6 °F 51.8 °F 94% 30.12 in - North 3.5 mph - N/A   Clear
7:00 AM 51.8 °F 50.0 °F 94% 30.12 in - North 5.8 mph - N/A   Clear
7:30 AM 55.4 °F 50.0 °F 82% 30.12 in - NNE 6.9 mph - N/A   Clear
8:00 AM 53.6 °F 50.0 °F 88% 30.15 in - NE 6.9 mph - N/A   Clear
8:30 AM 53.6 °F 51.8 °F 94% 30.15 in - NNE 3.5 mph - N/A   Clear
9:00 AM 54 °F 50 °F 83% 30.22 in 12 mi West 4.5 mph - -  
9:00 AM 55.4 °F 53.6 °F 94% 30.18 in - WSW 2.3 mph - N/A   Clear
9:30 AM 55.4 °F 53.6 °F 94% 30.18 in 6.2 mi NW 3.5 mph - N/A   Partly Cloudy
10:00 AM 59.0 °F 55.4 °F 88% 30.18 in 6.2 mi Variable 2.3 mph - N/A   Partly Cloudy
10:30 AM 60.8 °F 55.4 °F 82% 30.21 in 6.2 mi Variable 2.3 mph - N/A   Scattered Clouds
11:00 AM 60.8 °F 55.4 °F 82% 30.21 in 6.2 mi Variable 2.3 mph - N/A   Mostly Cloudy
11:30 AM 60.8 °F 55.4 °F 82% 30.18 in 6.2 mi West 3.5 mph - N/A   Mostly Cloudy
12:00 PM 63 °F 54 °F 66% 30.21 in 12 mi West 4.5 mph - -   Scattered Clouds
12:00 PM 62.6 °F 57.2 °F 82% 30.18 in 6.2 mi WSW 5.8 mph - N/A   Partly Cloudy
12:30 PM 62.6 °F 55.4 °F 77% 30.15 in 6.2 mi WSW 5.8 mph - N/A   Partly Cloudy
1:00 PM 62.6 °F 55.4 °F 77% 30.15 in 6.2 mi WSW 5.8 mph - N/A   Partly Cloudy
1:30 PM 62.6 °F 57.2 °F 82% 30.15 in 6.2 mi SW 8.1 mph - N/A   Partly Cloudy
2:00 PM 62.6 °F 57.2 °F 82% 30.15 in 6.2 mi SSW 6.9 mph - N/A   Partly Cloudy
2:30 PM 62.6 °F 55.4 °F 77% 30.15 in 6.2 mi SSW 4.6 mph - N/A   Partly Cloudy
3:00 PM 62 °F 54 °F 69% 30.19 in 9 mi South 4.5 mph - -   Scattered Clouds
3:00 PM 62.6 °F 57.2 °F 82% 30.15 in 6.2 mi South 5.8 mph - N/A   Partly Cloudy
3:30 PM 60.8 °F 55.4 °F 82% 30.15 in 6.2 mi SSE 4.6 mph - N/A   Partly Cloudy
4:00 PM 60.8 °F 55.4 °F 82% 30.15 in 6.2 mi South 6.9 mph - N/A   Partly Cloudy
4:30 PM 60.8 °F 55.4 °F 82% 30.18 in 6.2 mi SSE 6.9 mph - N/A   Partly Cloudy
5:00 PM 59.0 °F 55.4 °F 88% 30.18 in 6.2 mi South 4.6 mph - N/A   Partly Cloudy
5:30 PM 59.0 °F 55.4 °F 88% 30.18 in 6.2 mi SSW 3.5 mph - N/A   Partly Cloudy
6:00 PM 58 °F 53 °F 78% 30.23 in 9 mi WSW 2.2 mph - -   Scattered Clouds
6:00 PM 57.2 °F 55.4 °F 94% 30.18 in 6.2 mi Variable 1.2 mph - N/A   Partly Cloudy
6:30 PM 57.2 °F 53.6 °F 88% 30.21 in 6.2 mi Variable 2.3 mph - N/A   Partly Cloudy
7:00 PM 57.2 °F 53.6 °F 88% 30.21 in 6.2 mi NNW 4.6 mph - N/A   Partly Cloudy
7:30 PM 55.4 °F 53.6 °F 94% 30.21 in 6.2 mi NNW 4.6 mph - N/A   Partly Cloudy
8:00 PM 57.2 °F 53.6 °F 88% 30.21 in 6.2 mi North 4.6 mph - N/A   Partly Cloudy
8:30 PM 55.4 °F 50.0 °F 82% 30.21 in - North 5.8 mph - N/A   Clear
9:00 PM 54 °F 46 °F 65% 30.26 in 9 mi North 4.5 mph - -   Clear
9:00 PM 53.6 °F 50.0 °F 88% 30.21 in - NW 3.5 mph - N/A   Clear
9:30 PM 55.4 °F 46.4 °F 72% 30.21 in - NNE 4.6 mph - N/A   Clear
10:00 PM 51.8 °F 46.4 °F 82% 30.24 in - Variable 2.3 mph - N/A   Clear
10:30 PM 51.8 °F 46.4 °F 82% 30.21 in - NNE 4.6 mph - N/A   Clear
11:00 PM 51.8 °F 46.4 °F 82% 30.21 in - NNE 6.9 mph - N/A   Clear
11:30 PM 51.8 °F 46.4 °F 82% 30.21 in - NNW 4.6 mph - N/A   Clear